User: anonymous   Login
Location: Buckeye Ditch
(40.9104°N, 122.9517°W)
Time: 13:59:57
(UTC+00:00)
Language:

Cosmos 1805 - Orbit

View from above orbital plane
View from above orbital plane
View from above satellite
View from above satellite

Ground track
Ground track

The orbit data is extracted from the following two-line orbital elements,

1 17191U 86097A   24174.05804975  .00008000  00000-0  31716-3 0  9994
2 17191  82.4695  16.0194 0002436 199.1465 160.9682 15.25237905 51351
Epoch (UTC): 22 June 2024 01:23:35
Eccentricity: 0.0002436
inclination: 82.4695°
perigee height: 488 km
apogee height: 492 km
right ascension of ascending node: 16.0194°
argument of perigee: 199.1465°
revolutions per day: 15.25237905
mean anomaly at epoch: 160.9682°
orbit number at epoch: 5135

The dashed part of the orbit path shows where the satellite is in the earth's shadow,  

DLR